Time,TemperatureF,DewpointF,PressureIn,WindDirection,WindDirectionDegrees,WindSpeedMPH,WindSpeedGustMPH,Humidity,HourlyPrecipIn,Conditions,Clouds,dailyrainin,SoftwareType,DateUTC
2013-09-19 00:01:00,60.9,55.7,30.20,East,93,0.0,2.0,83,0.00,,---,0.00,VWS V14.01,2013-09-19 04:01:00,
2013-09-19 00:06:00,60.7,55.8,30.20,East,95,0.0,0.0,84,0.00,,---,0.00,VWS V14.01,2013-09-19 04:06:00,
2013-09-19 00:08:00,60.7,55.8,30.20,ENE,78,0.0,2.0,84,0.00,,---,0.00,VWS V14.01,2013-09-19 04:08:00,
2013-09-19 00:13:00,60.7,55.8,30.20,East,81,0.0,0.0,84,0.00,,---,0.00,VWS V14.01,2013-09-19 04:13:00,
2013-09-19 00:18:00,60.5,55.7,30.20,East,81,0.0,1.0,84,0.00,,---,0.00,VWS V14.01,2013-09-19 04:18:00,
2013-09-19 00:23:00,60.3,55.5,30.20,ESE,120,0.0,1.0,84,0.00,,---,0.00,VWS V14.01,2013-09-19 04:23:00,
2013-09-19 00:28:00,60.4,55.2,30.19,East,94,0.0,1.0,83,0.00,,---,0.00,VWS V14.01,2013-09-19 04:28:00,
2013-09-19 00:33:00,60.5,55.3,30.19,ESE,107,0.0,1.0,83,0.00,,---,0.00,VWS V14.01,2013-09-19 04:33:00,
2013-09-19 00:38:00,60.6,55.4,30.19,East,86,0.0,1.0,83,0.00,,---,0.00,VWS V14.01,2013-09-19 04:38:00,
2013-09-19 00:43:00,60.6,55.4,30.19,East,96,0.0,2.0,83,0.00,,---,0.00,VWS V14.01,2013-09-19 04:43:00,
2013-09-19 00:48:00,60.7,55.2,30.20,East,101,0.0,1.0,82,0.00,,---,0.00,VWS V14.01,2013-09-19 04:48:00,
2013-09-19 00:53:00,60.5,55.3,30.20,SE,124,0.0,1.0,83,0.00,,---,0.00,VWS V14.01,2013-09-19 04:53:00,
2013-09-19 00:58:00,60.3,55.1,30.19,ESE,113,1.0,1.0,83,0.00,,---,0.00,VWS V14.01,2013-09-19 04:58:00,
2013-09-19 01:03:00,60.1,55.3,30.19,ENE,77,0.0,1.0,84,0.00,,---,0.00,VWS V14.01,2013-09-19 05:03:00,
2013-09-19 01:08:00,59.9,55.1,30.19,ENE,77,0.0,0.0,84,0.00,,---,0.00,VWS V14.01,2013-09-19 05:08:00,
2013-09-19 01:13:00,59.7,54.9,30.19,ESE,102,0.0,0.0,84,0.00,,---,0.00,VWS V14.01,2013-09-19 05:13:00,
2013-09-19 01:18:00,59.6,54.4,30.20,East,101,0.0,0.0,83,0.00,,---,0.00,VWS V14.01,2013-09-19 05:18:00,
2013-09-19 01:23:00,59.7,54.5,30.20,East,91,0.0,1.0,83,0.00,,---,0.00,VWS V14.01,2013-09-19 05:23:00,
2013-09-19 01:28:00,59.8,54.6,30.20,East,91,0.0,0.0,83,0.00,,---,0.00,VWS V14.01,2013-09-19 05:28:00,
2013-09-19 01:33:00,59.9,54.4,30.20,East,91,0.0,0.0,82,0.00,,---,0.00,VWS V14.01,2013-09-19 05:33:00,
2013-09-19 01:38:00,59.9,54.7,30.19,East,91,0.0,0.0,83,0.00,,---,0.00,VWS V14.01,2013-09-19 05:38:00,
2013-09-19 01:43:00,59.6,54.8,30.19,East,91,0.0,0.0,84,0.00,,---,0.00,VWS V14.01,2013-09-19 05:43:00,
2013-09-19 01:48:00,59.3,54.8,30.19,East,91,0.0,0.0,85,0.00,,---,0.00,VWS V14.01,2013-09-19 05:48:00,
2013-09-19 01:53:00,59.2,54.4,30.19,East,92,0.0,1.0,84,0.00,,---,0.00,VWS V14.01,2013-09-19 05:53:00,
2013-09-19 01:58:00,59.3,54.8,30.19,East,91,0.0,1.0,85,0.00,,---,0.00,VWS V14.01,2013-09-19 05:58:00,
2013-09-19 02:03:00,59.0,55.1,30.19,East,92,0.0,0.0,87,0.00,,---,0.00,VWS V14.01,2013-09-19 06:03:00,
2013-09-19 02:08:00,58.6,55.1,30.19,East,91,0.0,0.0,88,0.00,,---,0.00,VWS V14.01,2013-09-19 06:08:00,
2013-09-19 02:14:00,58.5,54.3,30.18,ESE,107,1.0,1.0,86,0.00,,---,0.00,VWS V14.01,2013-09-19 06:14:00,
2013-09-19 02:19:00,59.1,54.3,30.18,ENE,68,0.0,3.0,84,0.00,,---,0.00,VWS V14.01,2013-09-19 06:19:00,
2013-09-19 02:24:00,59.6,54.1,30.18,East,98,0.0,2.0,82,0.00,,---,0.00,VWS V14.01,2013-09-19 06:24:00,
2013-09-19 02:29:00,59.7,53.9,30.18,ESE,110,0.0,2.0,81,0.00,,---,0.00,VWS V14.01,2013-09-19 06:29:00,
2013-09-19 02:34:00,59.6,53.8,30.18,SE,124,2.0,3.0,81,0.00,,---,0.00,VWS V14.01,2013-09-19 06:34:00,
2013-09-19 02:39:00,59.6,53.8,30.18,ESE,108,0.0,2.0,81,0.00,,---,0.00,VWS V14.01,2013-09-19 06:39:00,
2013-09-19 02:44:00,59.7,53.9,30.18,ESE,115,1.0,3.0,81,0.00,,---,0.00,VWS V14.01,2013-09-19 06:44:00,
2013-09-19 02:49:00,59.6,53.8,30.18,East,98,1.0,1.0,81,0.00,,---,0.00,VWS V14.01,2013-09-19 06:49:00,
2013-09-19 02:54:00,59.5,54.0,30.18,ESE,115,0.0,1.0,82,0.00,,---,0.00,VWS V14.01,2013-09-19 06:54:00,
2013-09-19 02:59:00,59.3,53.8,30.18,East,94,0.0,0.0,82,0.00,,---,0.00,VWS V14.01,2013-09-19 06:59:00,
2013-09-19 03:04:00,59.2,53.7,30.17,ESE,120,0.0,0.0,82,0.00,,---,0.00,VWS V14.01,2013-09-19 07:04:00,
2013-09-19 03:09:00,59.0,53.5,30.17,ESE,115,0.0,0.0,82,0.00,,---,0.00,VWS V14.01,2013-09-19 07:09:00,
2013-09-19 03:14:00,58.7,53.2,30.17,ESE,115,0.0,0.0,82,0.00,,---,0.00,VWS V14.01,2013-09-19 07:14:00,
2013-09-19 03:19:00,58.6,53.5,30.18,ESE,115,0.0,0.0,83,0.00,,---,0.00,VWS V14.01,2013-09-19 07:19:00,
2013-09-19 03:24:00,58.5,53.7,30.17,NNE,19,0.0,1.0,84,0.00,,---,0.00,VWS V14.01,2013-09-19 07:24:00,
2013-09-19 03:29:00,58.3,54.1,30.17,NNE,12,0.0,1.0,86,0.00,,---,0.00,VWS V14.01,2013-09-19 07:29:00,
2013-09-19 03:34:00,58.0,53.8,30.17,NNE,12,0.0,0.0,86,0.00,,---,0.00,VWS V14.01,2013-09-19 07:34:00,
2013-09-19 03:39:00,57.8,53.7,30.17,NNE,12,0.0,1.0,86,0.00,,---,0.00,VWS V14.01,2013-09-19 07:39:00,
2013-09-19 03:44:00,57.7,53.9,30.17,NNE,12,0.0,1.0,87,0.00,,---,0.00,VWS V14.01,2013-09-19 07:44:00,
2013-09-19 03:49:00,57.6,54.1,30.17,NNE,12,0.0,1.0,88,0.00,,---,0.00,VWS V14.01,2013-09-19 07:49:00,
2013-09-19 03:54:00,57.5,54.0,30.17,NNE,12,0.0,0.0,88,0.00,,---,0.00,VWS V14.01,2013-09-19 07:54:00,
2013-09-19 03:59:00,57.4,54.2,30.17,NNW,339,1.0,2.0,89,0.00,,---,0.00,VWS V14.01,2013-09-19 07:59:00,
2013-09-19 04:04:00,57.1,54.2,30.17,NNW,339,1.0,2.0,90,0.00,,---,0.00,VWS V14.01,2013-09-19 08:04:00,
2013-09-19 04:09:00,56.9,54.3,30.17,NNW,340,1.0,2.0,91,0.00,,---,0.00,VWS V14.01,2013-09-19 08:09:00,
2013-09-19 04:14:00,56.8,54.2,30.17,NNW,339,0.0,2.0,91,0.00,,---,0.00,VWS V14.01,2013-09-19 08:14:00,
2013-09-19 04:20:00,56.6,54.0,30.18,NNW,339,0.0,1.0,91,0.00,,---,0.00,VWS V14.01,2013-09-19 08:20:00,
2013-09-19 04:25:00,56.6,54.0,30.18,NNW,339,0.0,0.0,91,0.00,,---,0.00,VWS V14.01,2013-09-19 08:25:00,
2013-09-19 04:30:00,56.5,53.9,30.17,NNW,339,0.0,0.0,91,0.00,,---,0.00,VWS V14.01,2013-09-19 08:30:00,
2013-09-19 04:35:00,56.4,53.2,30.17,NNW,338,0.0,0.0,89,0.00,,---,0.00,VWS V14.01,2013-09-19 08:35:00,
2013-09-19 04:40:00,56.7,53.5,30.18,NNW,338,0.0,0.0,89,0.00,,---,0.00,VWS V14.01,2013-09-19 08:40:00,
2013-09-19 04:45:00,56.8,53.6,30.17,NNW,338,0.0,0.0,89,0.00,,---,0.00,VWS V14.01,2013-09-19 08:45:00,
2013-09-19 04:50:00,56.8,53.6,30.18,NNW,338,0.0,0.0,89,0.00,,---,0.00,VWS V14.01,2013-09-19 08:50:00,
2013-09-19 04:55:00,56.8,53.3,30.18,NNW,339,0.0,0.0,88,0.00,,---,0.00,VWS V14.01,2013-09-19 08:55:00,
2013-09-19 05:00:00,57.0,53.2,30.18,NNW,337,0.0,0.0,87,0.00,,---,0.00,VWS V14.01,2013-09-19 09:00:00,
2013-09-19 05:05:00,57.0,53.5,30.17,NNW,338,0.0,0.0,88,0.00,,---,0.00,VWS V14.01,2013-09-19 09:05:00,
2013-09-19 05:10:00,56.8,53.6,30.18,NNW,337,0.0,0.0,89,0.00,,---,0.00,VWS V14.01,2013-09-19 09:10:00,
2013-09-19 05:15:00,56.8,53.3,30.18,NNW,337,0.0,0.0,88,0.00,,---,0.00,VWS V14.01,2013-09-19 09:15:00,
2013-09-19 05:20:00,56.9,54.0,30.18,NNW,337,1.0,1.0,90,0.00,,---,0.00,VWS V14.01,2013-09-19 09:20:00,
2013-09-19 05:25:00,56.8,53.9,30.18,NNW,339,0.0,1.0,90,0.00,,---,0.00,VWS V14.01,2013-09-19 09:25:00,
2013-09-19 05:30:00,56.7,53.8,30.17,NNW,338,0.0,1.0,90,0.00,,---,0.00,VWS V14.01,2013-09-19 09:30:00,
2013-09-19 05:35:00,56.8,53.3,30.18,NNW,338,0.0,1.0,88,0.00,,---,0.00,VWS V14.01,2013-09-19 09:35:00,
2013-09-19 05:40:00,57.1,53.6,30.18,NNW,339,2.0,3.0,88,0.00,,---,0.00,VWS V14.01,2013-09-19 09:40:00,
2013-09-19 05:45:00,57.0,54.1,30.18,NNW,335,0.0,3.0,90,0.00,,---,0.00,VWS V14.01,2013-09-19 09:45:00,
2013-09-19 05:50:00,56.8,53.9,30.18,NW,323,0.0,3.0,90,0.00,,---,0.00,VWS V14.01,2013-09-19 09:50:00,
2013-09-19 05:55:00,56.7,54.1,30.18,NNW,333,1.0,3.0,91,0.00,,---,0.00,VWS V14.01,2013-09-19 09:55:00,
2013-09-19 06:00:00,56.7,54.1,30.18,NNW,333,0.0,1.0,91,0.00,,---,0.00,VWS V14.01,2013-09-19 10:00:00,
2013-09-19 06:05:00,56.7,54.1,30.18,NNW,333,0.0,1.0,91,0.00,,---,0.00,VWS V14.01,2013-09-19 10:05:00,
2013-09-19 06:10:00,56.8,54.2,30.18,NNW,333,0.0,1.0,91,0.00,,---,0.00,VWS V14.01,2013-09-19 10:10:00,
2013-09-19 06:16:00,56.8,54.2,30.18,NNW,333,0.0,1.0,91,0.00,,---,0.00,VWS V14.01,2013-09-19 10:16:00,
2013-09-19 06:21:00,56.8,54.5,30.18,NNW,333,0.0,1.0,92,0.00,,---,0.00,VWS V14.01,2013-09-19 10:21:00,
2013-09-19 06:26:00,56.9,54.3,30.18,NNW,333,1.0,1.0,91,0.00,,---,0.00,VWS V14.01,2013-09-19 10:26:00,
2013-09-19 06:31:00,57.1,54.5,30.18,NNW,333,0.0,1.0,91,0.00,,---,0.00,VWS V14.01,2013-09-19 10:31:00,
2013-09-19 06:36:00,57.1,54.5,30.18,NNW,333,0.0,1.0,91,0.00,,---,0.00,VWS V14.01,2013-09-19 10:36:00,
2013-09-19 06:41:00,57.1,54.8,30.18,NNW,333,0.0,0.0,92,0.00,,---,0.00,VWS V14.01,2013-09-19 10:41:00,
2013-09-19 06:46:00,57.2,54.9,30.18,NNW,333,0.0,0.0,92,0.00,,---,0.00,VWS V14.01,2013-09-19 10:46:00,
2013-09-19 06:51:00,57.2,54.9,30.18,NNW,335,0.0,2.0,92,0.00,,---,0.00,VWS V14.01,2013-09-19 10:51:00,
2013-09-19 06:56:00,57.3,55.0,30.18,NNW,335,0.0,0.0,92,0.00,,---,0.00,VWS V14.01,2013-09-19 10:56:00,
2013-09-19 07:01:00,57.4,55.1,30.18,NNW,336,0.0,0.0,92,0.00,,---,0.00,VWS V14.01,2013-09-19 11:01:00,
2013-09-19 07:06:00,57.4,55.1,30.18,NNW,335,0.0,0.0,92,0.00,,---,0.00,VWS V14.01,2013-09-19 11:06:00,
2013-09-19 07:11:00,57.5,55.2,30.18,NNW,335,0.0,0.0,92,0.00,,---,0.00,VWS V14.01,2013-09-19 11:11:00,
2013-09-19 07:16:00,57.6,55.3,30.18,NNW,335,0.0,0.0,92,0.00,,---,0.00,VWS V14.01,2013-09-19 11:16:00,
2013-09-19 07:21:00,57.7,55.4,30.18,NNW,335,0.0,0.0,92,0.00,,---,0.00,VWS V14.01,2013-09-19 11:21:00,
2013-09-19 07:26:00,57.8,55.5,30.19,NNW,335,0.0,0.0,92,0.00,,---,0.00,VWS V14.01,2013-09-19 11:26:00,
2013-09-19 07:31:00,57.9,55.6,30.19,NNW,335,0.0,0.0,92,0.00,,---,0.00,VWS V14.01,2013-09-19 11:31:00,
2013-09-19 07:36:00,58.2,55.9,30.19,NNW,335,0.0,0.0,92,0.00,,---,0.00,VWS V14.01,2013-09-19 11:36:00,
2013-09-19 07:41:00,58.7,56.4,30.19,NNW,335,0.0,0.0,92,0.00,,---,0.00,VWS V14.01,2013-09-19 11:41:00,
2013-09-19 07:46:00,59.3,56.7,30.19,NNW,335,0.0,0.0,91,0.00,,---,0.00,VWS V14.01,2013-09-19 11:46:00,
2013-09-19 07:51:00,59.5,56.6,30.19,NNW,335,0.0,0.0,90,0.00,,---,0.00,VWS V14.01,2013-09-19 11:51:00,
2013-09-19 07:56:00,59.5,56.0,30.19,SE,129,0.0,1.0,88,0.00,,---,0.00,VWS V14.01,2013-09-19 11:56:00,
2013-09-19 08:01:00,59.4,55.5,30.19,ESE,121,0.0,1.0,87,0.00,,---,0.00,VWS V14.01,2013-09-19 12:01:00,
2013-09-19 08:06:00,59.4,55.5,30.19,ESE,106,2.0,2.0,87,0.00,,---,0.00,VWS V14.01,2013-09-19 12:06:00,
2013-09-19 08:11:00,59.5,56.0,30.20,ESE,112,0.0,1.0,88,0.00,,---,0.00,VWS V14.01,2013-09-19 12:11:00,
2013-09-19 08:16:00,59.6,55.7,30.20,SE,124,0.0,0.0,87,0.00,,---,0.00,VWS V14.01,2013-09-19 12:16:00,
2013-09-19 08:21:00,59.7,55.2,30.20,SE,134,0.0,2.0,85,0.00,,---,0.00,VWS V14.01,2013-09-19 12:21:00,
2013-09-19 08:26:00,59.8,55.6,30.20,SE,132,1.0,2.0,86,0.00,,---,0.00,VWS V14.01,2013-09-19 12:26:00,
2013-09-19 08:31:00,59.9,55.7,30.20,ESE,113,0.0,1.0,86,0.00,,---,0.00,VWS V14.01,2013-09-19 12:31:00,
2013-09-19 08:36:00,60.0,55.8,30.20,East,94,0.0,0.0,86,0.00,,---,0.00,VWS V14.01,2013-09-19 12:36:00,
2013-09-19 08:42:00,60.3,55.8,30.20,East,94,0.0,0.0,85,0.00,,---,0.00,VWS V14.01,2013-09-19 12:42:00,
2013-09-19 08:47:00,60.5,56.0,30.20,East,93,0.0,1.0,85,0.00,,---,0.00,VWS V14.01,2013-09-19 12:47:00,
2013-09-19 08:52:00,60.8,55.9,30.20,SE,143,0.0,0.0,84,0.00,,---,0.00,VWS V14.01,2013-09-19 12:52:00,
2013-09-19 08:57:00,61.1,56.2,30.20,SE,125,0.0,1.0,84,0.00,,---,0.00,VWS V14.01,2013-09-19 12:57:00,
2013-09-19 09:02:00,61.3,56.4,30.20,ESE,115,1.0,1.0,84,0.00,,---,0.00,VWS V14.01,2013-09-19 13:02:00,
2013-09-19 09:07:00,61.3,56.4,30.20,ESE,113,1.0,3.0,84,0.00,,---,0.00,VWS V14.01,2013-09-19 13:07:00,
2013-09-19 09:12:00,61.5,56.6,30.20,ESE,120,0.0,1.0,84,0.00,,---,0.00,VWS V14.01,2013-09-19 13:12:00,
2013-09-19 09:17:00,61.7,56.2,30.20,SE,129,1.0,2.0,82,0.00,,---,0.00,VWS V14.01,2013-09-19 13:17:00,
2013-09-19 09:22:00,61.8,56.6,30.20,SE,127,1.0,1.0,83,0.00,,---,0.00,VWS V14.01,2013-09-19 13:22:00,
2013-09-19 09:27:00,62.1,56.9,30.21,SE,129,0.0,0.0,83,0.00,,---,0.00,VWS V14.01,2013-09-19 13:27:00,
2013-09-19 09:32:00,62.4,57.5,30.21,SE,129,0.0,1.0,84,0.00,,---,0.00,VWS V14.01,2013-09-19 13:32:00,
2013-09-19 09:37:00,62.7,57.5,30.21,East,87,0.0,0.0,83,0.00,,---,0.00,VWS V14.01,2013-09-19 13:37:00,
2013-09-19 09:42:00,63.0,57.4,30.21,East,87,0.0,0.0,82,0.00,,---,0.00,VWS V14.01,2013-09-19 13:42:00,
2013-09-19 09:47:00,63.1,57.5,30.21,East,89,0.0,0.0,82,0.00,,---,0.00,VWS V14.01,2013-09-19 13:47:00,
2013-09-19 09:52:00,63.4,57.8,30.21,East,89,0.0,0.0,82,0.00,,---,0.00,VWS V14.01,2013-09-19 13:52:00,
2013-09-19 09:57:00,63.5,57.6,30.21,SE,125,0.0,1.0,81,0.00,,---,0.00,VWS V14.01,2013-09-19 13:57:00,
2013-09-19 10:03:00,63.8,57.9,30.21,SE,125,0.0,0.0,81,0.00,,---,0.00,VWS V14.01,2013-09-19 14:03:00,
2013-09-19 10:08:00,64.1,58.2,30.21,SE,125,0.0,0.0,81,0.00,,---,0.00,VWS V14.01,2013-09-19 14:08:00,
2013-09-19 10:13:00,64.4,58.5,30.21,SE,125,0.0,0.0,81,0.00,,---,0.00,VWS V14.01,2013-09-19 14:13:00,
2013-09-19 10:18:00,64.5,58.2,30.21,SE,125,0.0,0.0,80,0.00,,---,0.00,VWS V14.01,2013-09-19 14:18:00,
2013-09-19 10:23:00,64.6,58.0,30.21,SE,136,0.0,1.0,79,0.00,,---,0.00,VWS V14.01,2013-09-19 14:23:00,
2013-09-19 10:28:00,64.6,58.3,30.21,SE,136,0.0,1.0,80,0.00,,---,0.00,VWS V14.01,2013-09-19 14:28:00,
2013-09-19 10:33:00,64.9,58.6,30.21,SE,136,0.0,0.0,80,0.00,,---,0.00,VWS V14.01,2013-09-19 14:33:00,
2013-09-19 10:38:00,65.1,58.8,30.21,SSE,168,0.0,0.0,80,0.00,,---,0.00,VWS V14.01,2013-09-19 14:38:00,
2013-09-19 10:43:00,65.4,58.7,30.21,South,179,0.0,1.0,79,0.00,,---,0.00,VWS V14.01,2013-09-19 14:43:00,
2013-09-19 10:48:00,65.9,59.2,30.21,SSW,194,0.0,1.0,79,0.00,,---,0.00,VWS V14.01,2013-09-19 14:48:00,
2013-09-19 10:53:00,66.2,59.2,30.21,SSW,194,0.0,0.0,78,0.00,,---,0.00,VWS V14.01,2013-09-19 14:53:00,
2013-09-19 10:58:00,66.5,58.7,30.21,SSW,193,0.0,0.0,76,0.00,,---,0.00,VWS V14.01,2013-09-19 14:58:00,
2013-09-19 11:03:00,66.8,59.4,30.21,SSW,193,0.0,0.0,77,0.00,,---,0.00,VWS V14.01,2013-09-19 15:03:00,
2013-09-19 11:08:00,67.2,59.0,30.21,SSW,193,0.0,0.0,75,0.00,,---,0.00,VWS V14.01,2013-09-19 15:08:00,
2013-09-19 11:13:00,67.1,58.9,30.21,SW,225,0.0,0.0,75,0.00,,---,0.00,VWS V14.01,2013-09-19 15:13:00,
2013-09-19 11:18:00,67.3,59.1,30.21,SW,225,0.0,1.0,75,0.00,,---,0.00,VWS V14.01,2013-09-19 15:18:00,
2013-09-19 11:23:00,67.4,59.2,30.21,SW,225,0.0,1.0,75,0.00,,---,0.00,VWS V14.01,2013-09-19 15:23:00,
2013-09-19 11:28:00,67.5,59.3,30.21,SW,225,0.0,1.0,75,0.00,,---,0.00,VWS V14.01,2013-09-19 15:28:00,
2013-09-19 11:33:00,67.6,59.8,30.21,SW,225,0.0,1.0,76,0.00,,---,0.00,VWS V14.01,2013-09-19 15:33:00,
2013-09-19 11:38:00,67.8,60.0,30.21,WSW,245,0.0,2.0,76,0.00,,---,0.00,VWS V14.01,2013-09-19 15:38:00,
2013-09-19 11:43:00,67.7,59.5,30.21,West,273,1.0,1.0,75,0.00,,---,0.00,VWS V14.01,2013-09-19 15:43:00,
2013-09-19 11:48:00,67.8,58.8,30.21,SW,236,0.0,1.0,73,0.00,,---,0.00,VWS V14.01,2013-09-19 15:48:00,
2013-09-19 11:53:00,67.9,58.9,30.21,SSW,207,1.0,1.0,73,0.00,,---,0.00,VWS V14.01,2013-09-19 15:53:00,
2013-09-19 11:58:00,68.1,58.7,30.20,SSW,205,0.0,3.0,72,0.00,,---,0.00,VWS V14.01,2013-09-19 15:58:00,
2013-09-19 12:03:00,68.3,58.9,30.21,SW,222,0.0,2.0,72,0.00,,---,0.00,VWS V14.01,2013-09-19 16:03:00,
2013-09-19 12:08:00,68.4,58.6,30.21,SW,226,1.0,1.0,71,0.00,,---,0.00,VWS V14.01,2013-09-19 16:08:00,
2013-09-19 12:13:00,68.4,58.6,30.20,WSW,250,0.0,1.0,71,0.00,,---,0.00,VWS V14.01,2013-09-19 16:13:00,
2013-09-19 12:18:00,68.7,59.7,30.20,WSW,250,0.0,1.0,73,0.00,,---,0.00,VWS V14.01,2013-09-19 16:18:00,
2013-09-19 12:23:00,69.0,59.6,30.20,WSW,250,0.0,1.0,72,0.00,,---,0.00,VWS V14.01,2013-09-19 16:23:00,
2013-09-19 12:28:00,69.1,60.8,30.20,WSW,252,0.0,1.0,75,0.00,,---,0.00,VWS V14.01,2013-09-19 16:28:00,
2013-09-19 12:33:00,69.2,60.6,30.20,ESE,105,0.0,1.0,74,0.00,,---,0.00,VWS V14.01,2013-09-19 16:33:00,
2013-09-19 12:38:00,69.4,60.4,30.19,NE,40,0.0,1.0,73,0.00,,---,0.00,VWS V14.01,2013-09-19 16:38:00,
2013-09-19 12:43:00,69.6,59.8,30.19,NE,40,0.0,1.0,71,0.00,,---,0.00,VWS V14.01,2013-09-19 16:43:00,
2013-09-19 12:48:00,69.8,59.6,30.19,NE,40,0.0,0.0,70,0.00,,---,0.00,VWS V14.01,2013-09-19 16:48:00,
2013-09-19 12:53:00,69.9,59.7,30.18,NE,40,0.0,0.0,70,0.00,,---,0.00,VWS V14.01,2013-09-19 16:53:00,
2013-09-19 12:58:00,70.2,60.0,30.19,NE,40,0.0,1.0,70,0.00,,---,0.00,VWS V14.01,2013-09-19 16:58:00,
2013-09-19 13:03:00,70.5,60.7,30.18,NW,318,0.0,2.0,71,0.00,,---,0.00,VWS V14.01,2013-09-19 17:03:00,
2013-09-19 13:08:00,70.7,60.0,30.18,ENE,68,0.0,0.0,69,0.00,,---,0.00,VWS V14.01,2013-09-19 17:08:00,
2013-09-19 13:13:00,71.6,60.5,30.18,NNW,331,1.0,2.0,68,0.00,,---,0.00,VWS V14.01,2013-09-19 17:13:00,
2013-09-19 13:18:00,72.1,60.5,30.18,NE,43,0.0,2.0,67,0.00,,---,0.00,VWS V14.01,2013-09-19 17:18:00,
2013-09-19 13:23:00,72.2,60.7,30.18,SW,233,1.0,3.0,67,0.00,,---,0.00,VWS V14.01,2013-09-19 17:23:00,
2013-09-19 13:28:00,72.6,59.7,30.18,NW,326,0.0,2.0,64,0.00,,---,0.00,VWS V14.01,2013-09-19 17:28:00,
2013-09-19 13:34:00,72.7,58.5,30.18,West,274,1.0,3.0,61,0.00,,---,0.00,VWS V14.01,2013-09-19 17:34:00,
2013-09-19 13:39:00,72.6,58.4,30.17,WSW,248,0.0,2.0,61,0.00,,---,0.00,VWS V14.01,2013-09-19 17:39:00,
2013-09-19 13:44:00,73.1,58.9,30.17,WNW,296,0.0,1.0,61,0.00,,---,0.00,VWS V14.01,2013-09-19 17:44:00,
2013-09-19 13:49:00,73.6,59.3,30.17,SSE,158,1.0,1.0,61,0.00,,---,0.00,VWS V14.01,2013-09-19 17:49:00,
2013-09-19 13:54:00,74.1,60.7,30.17,East,94,3.0,4.0,63,0.00,,---,0.00,VWS V14.01,2013-09-19 17:54:00,
2013-09-19 13:59:00,74.2,60.8,30.17,SSE,161,1.0,2.0,63,0.00,,---,0.00,VWS V14.01,2013-09-19 17:59:00,
2013-09-19 14:04:00,74.0,60.2,30.17,South,170,0.0,2.0,62,0.00,,---,0.00,VWS V14.01,2013-09-19 18:04:00,
2013-09-19 14:09:00,74.2,60.4,30.16,West,262,2.0,4.0,62,0.00,,---,0.00,VWS V14.01,2013-09-19 18:09:00,
2013-09-19 14:14:00,74.4,60.1,30.16,SSW,207,4.0,4.0,61,0.00,,---,0.00,VWS V14.01,2013-09-19 18:14:00,
2013-09-19 14:19:00,74.4,59.6,30.16,West,281,3.0,5.0,60,0.00,,---,0.00,VWS V14.01,2013-09-19 18:19:00,
2013-09-19 14:24:00,74.2,60.4,30.15,ESE,103,2.0,4.0,62,0.00,,---,0.00,VWS V14.01,2013-09-19 18:24:00,
2013-09-19 14:29:00,74.8,60.5,30.15,ESE,115,3.0,5.0,61,0.00,,---,0.00,VWS V14.01,2013-09-19 18:29:00,
2013-09-19 14:34:00,74.8,60.0,30.15,WSW,243,5.0,5.0,60,0.00,,---,0.00,VWS V14.01,2013-09-19 18:34:00,
2013-09-19 14:39:00,74.7,60.4,30.15,SSE,158,0.0,4.0,61,0.00,,---,0.00,VWS V14.01,2013-09-19 18:39:00,
2013-09-19 14:44:00,75.1,60.8,30.15,SE,139,2.0,4.0,61,0.00,,---,0.00,VWS V14.01,2013-09-19 18:44:00,
2013-09-19 14:49:00,74.8,60.0,30.15,ESE,115,0.0,4.0,60,0.00,,---,0.00,VWS V14.01,2013-09-19 18:49:00,
2013-09-19 14:54:00,75.2,60.8,30.14,SE,129,1.0,3.0,61,0.00,,---,0.00,VWS V14.01,2013-09-19 18:54:00,
2013-09-19 14:59:00,75.4,60.1,30.15,ESE,123,3.0,4.0,59,0.00,,---,0.00,VWS V14.01,2013-09-19 18:59:00,
2013-09-19 15:04:00,75.5,60.7,30.14,ESE,114,2.0,4.0,60,0.00,,---,0.00,VWS V14.01,2013-09-19 19:04:00,
2013-09-19 15:09:00,76.0,61.1,30.14,SSE,149,0.0,3.0,60,0.00,,---,0.00,VWS V14.01,2013-09-19 19:09:00,
2013-09-19 15:14:00,76.6,61.2,30.13,North,354,1.0,3.0,59,0.00,,---,0.00,VWS V14.01,2013-09-19 19:14:00,
2013-09-19 15:19:00,76.9,61.5,30.14,SW,226,0.0,2.0,59,0.00,,---,0.00,VWS V14.01,2013-09-19 19:19:00,
2013-09-19 15:24:00,76.6,61.2,30.13,NW,307,1.0,3.0,59,0.00,,---,0.00,VWS V14.01,2013-09-19 19:24:00,
2013-09-19 15:29:00,76.5,61.6,30.13,NNW,333,1.0,3.0,60,0.00,,---,0.00,VWS V14.01,2013-09-19 19:29:00,
2013-09-19 15:34:00,76.7,61.3,30.13,NNW,333,0.0,1.0,59,0.00,,---,0.00,VWS V14.01,2013-09-19 19:34:00,
2013-09-19 15:39:00,77.1,61.7,30.13,NW,317,0.0,1.0,59,0.00,,---,0.00,VWS V14.01,2013-09-19 19:39:00,
2013-09-19 15:45:00,77.2,61.3,30.12,WSW,250,0.0,1.0,58,0.00,,---,0.00,VWS V14.01,2013-09-19 19:45:00,
2013-09-19 15:50:00,77.0,61.6,30.12,WSW,248,0.0,2.0,59,0.00,,---,0.00,VWS V14.01,2013-09-19 19:50:00,
2013-09-19 15:55:00,77.5,61.6,30.12,South,186,2.0,2.0,58,0.00,,---,0.00,VWS V14.01,2013-09-19 19:55:00,
2013-09-19 16:00:00,77.7,62.2,30.12,SE,125,2.0,3.0,59,0.00,,---,0.00,VWS V14.01,2013-09-19 20:00:00,
2013-09-19 16:05:00,77.6,62.2,30.12,SW,217,2.0,4.0,59,0.00,,---,0.00,VWS V14.01,2013-09-19 20:05:00,
2013-09-19 16:10:00,77.9,62.0,30.12,West,260,2.0,3.0,58,0.00,,---,0.00,VWS V14.01,2013-09-19 20:10:00,
2013-09-19 16:15:00,77.8,61.9,30.12,SW,232,1.0,3.0,58,0.00,,---,0.00,VWS V14.01,2013-09-19 20:15:00,
2013-09-19 16:20:00,77.5,61.6,30.12,SW,232,0.0,3.0,58,0.00,,---,0.00,VWS V14.01,2013-09-19 20:20:00,
2013-09-19 16:25:00,77.4,61.5,30.12,South,172,1.0,4.0,58,0.00,,---,0.00,VWS V14.01,2013-09-19 20:25:00,
2013-09-19 16:30:00,77.5,62.1,30.12,SW,215,3.0,4.0,59,0.00,,---,0.00,VWS V14.01,2013-09-19 20:30:00,
2013-09-19 16:35:00,77.3,61.9,30.12,South,188,2.0,5.0,59,0.00,,---,0.00,VWS V14.01,2013-09-19 20:35:00,
2013-09-19 16:40:00,77.5,62.5,30.12,SSW,195,2.0,2.0,60,0.00,,---,0.00,VWS V14.01,2013-09-19 20:40:00,
2013-09-19 16:45:00,77.8,62.8,30.12,SSE,154,1.0,1.0,60,0.00,,---,0.00,VWS V14.01,2013-09-19 20:45:00,
2013-09-19 16:50:00,77.8,62.8,30.12,SE,138,1.0,2.0,60,0.00,,---,0.00,VWS V14.01,2013-09-19 20:50:00,
2013-09-19 16:55:00,77.7,61.8,30.12,SE,129,0.0,4.0,58,0.00,,---,0.00,VWS V14.01,2013-09-19 20:55:00,
2013-09-19 17:00:00,78.0,62.5,30.11,SSE,159,2.0,4.0,59,0.00,,---,0.00,VWS V14.01,2013-09-19 21:00:00,
2013-09-19 17:05:00,78.2,62.2,30.12,South,177,1.0,2.0,58,0.00,,---,0.00,VWS V14.01,2013-09-19 21:05:00,
2013-09-19 17:10:00,78.4,62.4,30.11,SSW,208,0.0,3.0,58,0.00,,---,0.00,VWS V14.01,2013-09-19 21:10:00,
2013-09-19 17:15:00,78.9,63.8,30.11,SSW,207,0.0,2.0,60,0.00,,---,0.00,VWS V14.01,2013-09-19 21:15:00,
2013-09-19 17:20:00,79.3,62.8,30.11,SW,224,1.0,1.0,57,0.00,,---,0.00,VWS V14.01,2013-09-19 21:20:00,
2013-09-19 17:25:00,78.8,62.3,30.11,SE,146,1.0,2.0,57,0.00,,---,0.00,VWS V14.01,2013-09-19 21:25:00,
2013-09-19 17:30:00,77.9,62.9,30.11,SSE,158,0.0,2.0,60,0.00,,---,0.00,VWS V14.01,2013-09-19 21:30:00,
2013-09-19 17:35:00,77.5,62.1,30.11,SSE,156,0.0,1.0,59,0.00,,---,0.00,VWS V14.01,2013-09-19 21:35:00,
2013-09-19 17:40:00,77.3,62.8,30.11,SSE,156,0.0,0.0,61,0.00,,---,0.00,VWS V14.01,2013-09-19 21:40:00,
2013-09-19 17:46:00,77.0,62.5,30.11,ESE,103,3.0,3.0,61,0.00,,---,0.00,VWS V14.01,2013-09-19 21:46:00,
2013-09-19 17:51:00,76.6,64.0,30.11,SE,125,0.0,2.0,65,0.00,,---,0.00,VWS V14.01,2013-09-19 21:51:00,
2013-09-19 17:56:00,76.6,63.1,30.11,SE,127,0.0,1.0,63,0.00,,---,0.00,VWS V14.01,2013-09-19 21:56:00,
2013-09-19 18:01:00,76.4,63.3,30.11,SE,132,0.0,1.0,64,0.00,,---,0.00,VWS V14.01,2013-09-19 22:01:00,
2013-09-19 18:06:00,76.2,63.6,30.11,SE,133,0.0,1.0,65,0.00,,---,0.00,VWS V14.01,2013-09-19 22:06:00,
2013-09-19 18:11:00,75.9,64.2,30.11,SE,132,0.0,2.0,67,0.00,,---,0.00,VWS V14.01,2013-09-19 22:11:00,
2013-09-19 18:16:00,75.9,63.7,30.11,East,94,0.0,3.0,66,0.00,,---,0.00,VWS V14.01,2013-09-19 22:16:00,
2013-09-19 18:21:00,75.8,63.6,30.11,East,98,1.0,2.0,66,0.00,,---,0.00,VWS V14.01,2013-09-19 22:21:00,
2013-09-19 18:26:00,75.8,63.6,30.11,ESE,114,1.0,2.0,66,0.00,,---,0.00,VWS V14.01,2013-09-19 22:26:00,
2013-09-19 18:31:00,75.7,64.4,30.11,ESE,105,1.0,2.0,68,0.00,,---,0.00,VWS V14.01,2013-09-19 22:31:00,
2013-09-19 18:36:00,75.6,64.3,30.12,ESE,122,0.0,2.0,68,0.00,,---,0.00,VWS V14.01,2013-09-19 22:36:00,
2013-09-19 18:41:00,75.4,63.7,30.12,ESE,117,0.0,2.0,67,0.00,,---,0.00,VWS V14.01,2013-09-19 22:41:00,
2013-09-19 18:46:00,75.2,63.9,30.11,ESE,122,1.0,2.0,68,0.00,,---,0.00,VWS V14.01,2013-09-19 22:46:00,
2013-09-19 18:51:00,74.9,63.6,30.11,SE,136,1.0,3.0,68,0.00,,---,0.00,VWS V14.01,2013-09-19 22:51:00,
2013-09-19 18:56:00,74.7,63.0,30.11,ESE,115,3.0,3.0,67,0.00,,---,0.00,VWS V14.01,2013-09-19 22:56:00,
2013-09-19 19:01:00,74.5,63.3,30.11,ESE,122,1.0,3.0,68,0.00,,---,0.00,VWS V14.01,2013-09-19 23:01:00,
2013-09-19 19:06:00,74.2,63.0,30.11,East,98,2.0,3.0,68,0.00,,---,0.00,VWS V14.01,2013-09-19 23:06:00,
2013-09-19 19:11:00,73.9,63.1,30.11,SE,129,1.0,3.0,69,0.00,,---,0.00,VWS V14.01,2013-09-19 23:11:00,
2013-09-19 19:16:00,73.5,63.1,30.11,SE,134,2.0,3.0,70,0.00,,---,0.00,VWS V14.01,2013-09-19 23:16:00,
2013-09-19 19:21:00,73.3,63.3,30.11,ESE,115,1.0,3.0,71,0.00,,---,0.00,VWS V14.01,2013-09-19 23:21:00,
2013-09-19 19:26:00,73.0,63.0,30.11,SE,134,0.0,2.0,71,0.00,,---,0.00,VWS V14.01,2013-09-19 23:26:00,
2013-09-19 19:31:00,72.7,63.2,30.11,SE,124,1.0,2.0,72,0.00,,---,0.00,VWS V14.01,2013-09-19 23:31:00,
2013-09-19 19:36:00,72.6,62.7,30.11,ESE,122,0.0,2.0,71,0.00,,---,0.00,VWS V14.01,2013-09-19 23:36:00,
2013-09-19 19:41:00,72.7,62.4,30.11,ESE,109,1.0,3.0,70,0.00,,---,0.00,VWS V14.01,2013-09-19 23:41:00,
2013-09-19 19:46:00,72.7,62.8,30.11,ESE,122,1.0,3.0,71,0.00,,---,0.00,VWS V14.01,2013-09-19 23:46:00,
2013-09-19 19:51:00,72.6,63.1,30.11,ESE,110,0.0,2.0,72,0.00,,---,0.00,VWS V14.01,2013-09-19 23:51:00,
2013-09-19 19:56:00,72.6,63.1,30.11,ESE,110,1.0,2.0,72,0.00,,---,0.00,VWS V14.01,2013-09-19 23:56:00,
2013-09-19 20:01:00,72.6,62.7,30.11,ESE,114,0.0,2.0,71,0.00,,---,0.00,VWS V14.01,2013-09-20 00:01:00,
2013-09-19 20:06:00,72.4,62.5,30.11,SE,124,2.0,2.0,71,0.00,,---,0.00,VWS V14.01,2013-09-20 00:06:00,
2013-09-19 20:11:00,72.4,62.1,30.11,SE,124,2.0,2.0,70,0.00,,---,0.00,VWS V14.01,2013-09-20 00:11:00,
2013-09-19 20:16:00,72.4,62.1,30.11,SE,125,1.0,1.0,70,0.00,,---,0.00,VWS V14.01,2013-09-20 00:16:00,
2013-09-19 20:21:00,72.4,62.1,30.11,SE,129,1.0,2.0,70,0.00,,---,0.00,VWS V14.01,2013-09-20 00:21:00,
2013-09-19 20:26:00,72.2,61.9,30.11,SE,136,2.0,2.0,70,0.00,,---,0.00,VWS V14.01,2013-09-20 00:26:00,
2013-09-19 20:31:00,72.2,61.9,30.11,SSE,155,2.0,2.0,70,0.00,,---,0.00,VWS V14.01,2013-09-20 00:31:00,
2013-09-19 20:36:00,72.2,62.3,30.11,SSE,156,2.0,2.0,71,0.00,,---,0.00,VWS V14.01,2013-09-20 00:36:00,
2013-09-19 20:41:00,72.1,62.2,30.11,SSE,158,2.0,2.0,71,0.00,,---,0.00,VWS V14.01,2013-09-20 00:41:00,
2013-09-19 20:46:00,71.7,62.6,30.11,SSE,158,0.0,0.0,73,0.00,,---,0.00,VWS V14.01,2013-09-20 00:46:00,
2013-09-19 20:51:00,71.4,62.3,30.11,East,97,2.0,2.0,73,0.00,,---,0.00,VWS V14.01,2013-09-20 00:51:00,
2013-09-19 20:56:00,71.4,62.3,30.11,ESE,118,2.0,3.0,73,0.00,,---,0.00,VWS V14.01,2013-09-20 00:56:00,
2013-09-19 21:01:00,71.3,62.6,30.11,ESE,117,1.0,1.0,74,0.00,,---,0.00,VWS V14.01,2013-09-20 01:01:00,
2013-09-19 21:06:00,71.2,62.5,30.11,ESE,117,0.0,1.0,74,0.00,,---,0.00,VWS V14.01,2013-09-20 01:06:00,
2013-09-19 21:11:00,71.1,62.4,30.11,SE,129,1.0,1.0,74,0.00,,---,0.00,VWS V14.01,2013-09-20 01:11:00,
2013-09-19 21:16:00,70.9,62.6,30.11,SE,139,1.0,1.0,75,0.00,,---,0.00,VWS V14.01,2013-09-20 01:16:00,
2013-09-19 21:21:00,71.0,62.3,30.11,SE,138,1.0,1.0,74,0.00,,---,0.00,VWS V14.01,2013-09-20 01:21:00,
2013-09-19 21:26:00,70.9,62.6,30.11,SE,139,1.0,1.0,75,0.00,,---,0.00,VWS V14.01,2013-09-20 01:26:00,
2013-09-19 21:31:00,70.9,62.6,30.11,SE,139,1.0,1.0,75,0.00,,---,0.00,VWS V14.01,2013-09-20 01:31:00,
2013-09-19 21:36:00,70.7,62.4,30.11,SE,138,1.0,1.0,75,0.00,,---,0.00,VWS V14.01,2013-09-20 01:36:00,
2013-09-19 21:41:00,70.5,62.6,30.11,SE,138,1.0,1.0,76,0.00,,---,0.00,VWS V14.01,2013-09-20 01:41:00,
2013-09-19 21:46:00,70.3,62.4,30.11,SE,139,0.0,1.0,76,0.00,,---,0.00,VWS V14.01,2013-09-20 01:46:00,
2013-09-19 21:52:00,70.1,62.6,30.11,SE,138,0.0,0.0,77,0.00,,---,0.00,VWS V14.01,2013-09-20 01:52:00,
2013-09-19 21:57:00,69.9,62.4,30.11,ESE,102,1.0,1.0,77,0.00,,---,0.00,VWS V14.01,2013-09-20 01:57:00,
2013-09-19 22:02:00,69.7,62.9,30.11,East,84,1.0,2.0,79,0.00,,---,0.00,VWS V14.01,2013-09-20 02:02:00,
2013-09-19 22:07:00,69.7,62.9,30.11,East,101,0.0,2.0,79,0.00,,---,0.00,VWS V14.01,2013-09-20 02:07:00,
2013-09-19 22:12:00,69.6,62.4,30.11,ESE,121,1.0,2.0,78,0.00,,---,0.00,VWS V14.01,2013-09-20 02:12:00,
2013-09-19 22:17:00,69.8,62.3,30.11,SE,133,0.0,1.0,77,0.00,,---,0.00,VWS V14.01,2013-09-20 02:17:00,
2013-09-19 22:22:00,69.8,62.3,30.11,SE,143,1.0,2.0,77,0.00,,---,0.00,VWS V14.01,2013-09-20 02:22:00,
2013-09-19 22:27:00,69.8,62.6,30.11,SE,139,2.0,2.0,78,0.00,,---,0.00,VWS V14.01,2013-09-20 02:27:00,
2013-09-19 22:32:00,69.5,62.7,30.10,ESE,111,2.0,2.0,79,0.00,,---,0.00,VWS V14.01,2013-09-20 02:32:00,
2013-09-19 22:37:00,69.2,62.8,30.10,ESE,114,2.0,4.0,80,0.00,,---,0.00,VWS V14.01,2013-09-20 02:37:00,
2013-09-19 22:42:00,68.8,62.4,30.10,SE,132,2.0,3.0,80,0.00,,---,0.00,VWS V14.01,2013-09-20 02:42:00,
2013-09-19 22:47:00,68.4,62.3,30.10,SE,139,2.0,2.0,81,0.00,,---,0.00,VWS V14.01,2013-09-20 02:47:00,
2013-09-19 22:52:00,68.3,62.6,30.10,SE,144,2.0,3.0,82,0.00,,---,0.00,VWS V14.01,2013-09-20 02:52:00,
2013-09-19 22:57:00,68.2,62.5,30.10,SE,140,0.0,3.0,82,0.00,,---,0.00,VWS V14.01,2013-09-20 02:57:00,
2013-09-19 23:02:00,68.3,62.6,30.10,SE,132,2.0,4.0,82,0.00,,---,0.00,VWS V14.01,2013-09-20 03:02:00,
2013-09-19 23:07:00,68.3,62.6,30.10,SSE,147,1.0,3.0,82,0.00,,---,0.00,VWS V14.01,2013-09-20 03:07:00,
2013-09-19 23:12:00,68.2,62.8,30.10,SE,139,2.0,3.0,83,0.00,,---,0.00,VWS V14.01,2013-09-20 03:12:00,
2013-09-19 23:17:00,68.0,62.7,30.10,SE,125,2.0,3.0,83,0.00,,---,0.00,VWS V14.01,2013-09-20 03:17:00,
2013-09-19 23:22:00,67.9,62.9,30.11,SSE,147,2.0,4.0,84,0.00,,---,0.00,VWS V14.01,2013-09-20 03:22:00,
2013-09-19 23:27:00,67.8,62.8,30.11,SE,138,4.0,4.0,84,0.00,,---,0.00,VWS V14.01,2013-09-20 03:27:00,
2013-09-19 23:32:00,67.6,62.9,30.11,SE,134,2.0,3.0,85,0.00,,---,0.00,VWS V14.01,2013-09-20 03:32:00,
2013-09-19 23:37:00,67.3,62.6,30.11,SE,125,1.0,3.0,85,0.00,,---,0.00,VWS V14.01,2013-09-20 03:37:00,
2013-09-19 23:42:00,67.0,62.3,30.10,SE,132,3.0,3.0,85,0.00,,---,0.00,VWS V14.01,2013-09-20 03:42:00,
2013-09-19 23:47:00,66.9,62.6,30.10,SE,124,5.0,5.0,86,0.00,,---,0.00,VWS V14.01,2013-09-20 03:47:00,
2013-09-19 23:52:00,66.9,62.6,30.10,SE,143,3.0,4.0,86,0.00,,---,0.00,VWS V14.01,2013-09-20 03:52:00,
2013-09-19 23:57:00,66.9,62.6,30.10,SE,144,2.0,4.0,86,0.00,,---,0.00,VWS V14.01,2013-09-20 03:57:00,